Amateur Radio Satellites - All Passes

Search period start: 19 May 2013 18:22
Search period end: 20 May 2013 18:22
Location: Oshawa, 43.9000°N, 78.8670°W

Satellite Date Start Highest point End Downlink Frequencies (MHz)
Time Altitude Azimuth
SO-50 19 May 18:47:18 18:51:53 83° 55° (NE) 18:56:22 436.795 FM
STRAND 1 19 May 18:50:02 18:54:10 24° 94° (E) 18:58:17 ?
Sapphire 19 May 18:54:35 18:59:19 31° 250° (WSW) 19:04:00 437.095 MHz 1200 baud AX-25 AFSK
RS-15 19 May 19:20:43 19:32:22 55° 316° (NW) 19:43:34 29.354 - 29.394 USB, Beacon 29.352 USB
JAS-1B 19 May 19:28:57 19:37:57 55° 68° (ENE) 19:45:42 435.800 - 435.900 CW/SSB
SO-67 19 May 19:35:36 19:38:46 30° 71° (ENE) 19:41:56 435.3500 MHz FM
Hamsat 19 May 19:55:41 19:59:45 48° 261° (W) 20:03:52 145.90 MHz
HO-68 19 May 20:15:13 20:20:38 24° 55° (NE) 20:26:03 435.675 MHz FM
STRAND 1 19 May 20:28:42 20:33:34 44° 291° (WNW) 20:38:25 ?
UOSAT-12 19 May 20:29:28 20:33:21 26° 42° (NE) 20:37:13 437.025 FM, 437.400 FM
SO-50 19 May 20:30:15 20:31:48 12° 253° (WSW) 20:33:21 436.795 FM
JAS-2 19 May 20:45:19 20:51:34 28° 59° (ENE) 20:57:53 435.800 - 435.900 CW/SSB, 435.910 FM
SO-67 19 May 21:09:51 21:12:18 17° 267° (W) 21:14:45 435.3500 MHz FM
JAS-1B 19 May 21:20:00 21:28:35 39° 264° (W) 21:36:10 435.800 - 435.900 CW/SSB
OPAL 19 May 21:21:51 21:25:36 21° 59° (ENE) 21:29:20 ?
RS-15 19 May 21:38:40 21:48:07 27° 347° (NNW) 21:57:16 29.354 - 29.394 USB, Beacon 29.352 USB
Oscar 11 19 May 21:44:51 21:48:54 41° 71° (ENE) 21:52:59 145.825 FM, Beacon 2401.500 USB
HO-68 19 May 22:00:30 22:07:37 76° 255° (WSW) 22:14:48 435.675 MHz FM
UOSAT-12 19 May 22:09:19 22:13:45 47° 241° (WSW) 22:18:09 437.025 FM, 437.400 FM
JAS-2 19 May 22:28:12 22:35:51 74° 258° (WSW) 22:43:45 435.800 - 435.900 CW/SSB, 435.910 FM
AO-40 19 May 22:54:07 04:45:21 41° 175° (S) 11:07:46 Beacon 2401.320
OPAL 19 May 22:58:55 23:04:03 60° 256° (WSW) 23:09:11 ?
KITSAT 1 19 May 23:14:08 23:20:55 31° 107° (ESE) 23:27:44 435.175 FM
Oscar 11 19 May 23:22:15 23:25:19 19° 268° (W) 23:28:24 145.825 FM, Beacon 2401.500 USB
HO-68 19 May 23:53:18 23:56:27 13° 273° (W) 23:59:37 435.675 MHz FM
RS-15 19 May 23:55:28 00:05:15 31° 23° (NNE) 00:14:40 29.354 - 29.394 USB, Beacon 29.352 USB
JAS-2 20 May 00:18:00 00:22:05 15° 277° (W) 00:26:13 435.800 - 435.900 CW/SSB, 435.910 FM
KITSAT 1 20 May 01:07:46 01:15:46 65° 307° (NW) 01:23:52 435.175 FM
Uribyol 2 20 May 02:08:06 02:11:29 17° 91° (E) 02:14:50 436.500 FM
RS-15 20 May 02:08:38 02:19:52 75° 52° (NE) 02:30:45 29.354 - 29.394 USB, Beacon 29.352 USB
Oscar 19 20 May 02:17:15 02:21:23 24° 93° (E) 02:25:28 437.125 CW, 437.150 USB
MaSat-1 20 May 02:22:58 02:29:30 38° 109° (ESE) 02:35:04 437.345 MHz
Oscar 10/S400 20 May 02:39:45 05:37:32 18° 79° (E) 07:22:14 145.825 - 145.975 CW/USB, Beacon 145.810 USB
AO-Echo 20 May 02:47:36 02:49:07 11° 89° (E) 02:50:39 ?
Oscar 16 20 May 02:55:20 03:00:30 61° 101° (E) 03:05:35 437.025 USB, Beacon 2401.1428
AO-27 20 May 02:57:00 03:02:02 46° 99° (E) 03:07:02 436.795 MHz FM
ITAMSAT 1 20 May 03:04:24 03:09:31 53° 100° (E) 03:14:37 435.822 SSB
KITSAT 1 20 May 03:06:50 03:12:53 22° 332° (NNW) 03:18:59 435.175 FM
Uribyol 2 20 May 03:46:14 03:51:25 64° 288° (WNW) 03:56:35 436.500 FM
Oscar 19 20 May 03:56:01 04:00:57 46° 291° (WNW) 04:05:50 437.125 CW, 437.150 USB
MaSat-1 20 May 04:05:02 04:11:42 45° 303° (WNW) 04:17:12 437.345 MHz
ISS 20 May 04:09:17 04:12:15 31° 138° (SE) 04:15:14 145.800 FM
Uosat F 20 May 04:13:59 04:18:36 36° 97° (E) 04:23:12 435.120 FM
RS-15 20 May 04:22:00 04:31:10 32° 255° (WSW) 04:40:12 29.354 - 29.394 USB, Beacon 29.352 USB
AO-Echo 20 May 04:23:45 04:28:29 79° 285° (WNW) 04:33:17 ?
TMSAT-1 20 May 04:23:57 04:28:20 26° 94° (E) 04:32:42 436.925 FM
AO-7 20 May 04:26:04 04:28:49 12° 85° (E) 04:31:35 29.400 - 29.500 MHz
Oscar 16 20 May 04:35:47 04:39:23 19° 299° (WNW) 04:42:58 437.025 USB, Beacon 2401.1428
AO-27 20 May 04:37:06 04:41:17 25° 297° (WNW) 04:45:28 436.795 MHz FM
Gurwin Techsat 1B 20 May 04:43:21 04:48:36 56° 100° (E) 04:53:48 435.225 FM
ITAMSAT 1 20 May 04:44:43 04:48:40 22° 298° (WNW) 04:52:37 435.822 SSB
KITSAT 1 20 May 05:07:48 05:11:59 15° 3° (N) 05:16:10 435.175 FM
ISS 20 May 05:45:41 05:48:53 43° 336° (NNW) 05:52:07 145.800 FM
Uosat F 20 May 05:53:00 05:57:18 29° 295° (WNW) 06:01:36 435.120 FM
MaSat-1 20 May 05:54:01 05:55:02 10° 321° (NW) 05:56:01 437.345 MHz
TMSAT-1 20 May 06:03:26 06:08:27 44° 291° (WNW) 06:13:26 436.925 FM
AO-Echo 20 May 06:06:09 06:06:31 10° 303° (WNW) 06:06:53 ?
STRAND 1 20 May 06:07:20 06:12:03 40° 68° (ENE) 06:16:48 ?
AO-7 20 May 06:14:52 06:23:12 65° 104° (ESE) 06:31:29 29.400 - 29.500 MHz
Gurwin Techsat 1B 20 May 06:24:13 06:28:10 22° 298° (WNW) 06:32:07 435.225 FM
Saudisat 1A 20 May 06:31:28 06:35:30 32° 115° (ESE) 06:39:34 436.775 MHz
KITSAT 1 20 May 07:04:18 07:10:52 26° 32° (NNE) 07:17:23 435.175 FM
ISS 20 May 07:23:32 07:26:12 21° 356° (N) 07:28:52 145.800 FM
PCSat 20 May 07:23:46 07:26:52 16° 104° (ESE) 07:29:58 145.825 MHz
Hamsat 20 May 07:40:59 07:44:43 27° 95° (E) 07:48:27 145.90 MHz
STRAND 1 20 May 07:47:08 07:51:22 26° 265° (W) 07:55:38 ?
Sapphire 20 May 07:54:52 07:59:23 28° 109° (ESE) 08:03:55 437.095 MHz 1200 baud AX-25 AFSK
AO-7 20 May 08:08:20 08:15:29 33° 304° (NW) 08:22:37 29.400 - 29.500 MHz
Saudisat 1A 20 May 08:10:55 08:15:09 35° 314° (NW) 08:19:25 436.775 MHz
SO-67 20 May 08:34:13 08:37:29 32° 97° (E) 08:40:44 435.3500 MHz FM
KITSAT 1 20 May 08:59:26 09:07:37 79° 56° (ENE) 09:15:45 435.175 FM
ISS 20 May 09:00:39 09:03:38 29° 16° (NNE) 09:06:38 145.800 FM
PCSat 20 May 09:04:11 09:09:36 78° 302° (WNW) 09:15:04 145.825 MHz
JAS-1B 20 May 09:04:32 09:10:46 66° 102° (ESE) 09:16:25 435.800 - 435.900 CW/SSB
SO-50 20 May 09:05:02 09:08:32 20° 112° (ESE) 09:12:00 436.795 FM
Hamsat 20 May 09:17:00 09:20:46 29° 291° (WNW) 09:24:32 145.90 MHz
HO-68 20 May 09:28:03 09:32:52 19° 90° (E) 09:37:40 435.675 MHz FM
Sapphire 20 May 09:37:23 09:42:34 47° 308° (NW) 09:47:49 437.095 MHz 1200 baud AX-25 AFSK
JAS-2 20 May 09:39:25 09:43:40 17° 84° (E) 09:47:37 435.800 - 435.900 CW/SSB, 435.910 FM
SO-67 20 May 10:08:21 10:10:43 17° 293° (WNW) 10:13:05 435.3500 MHz FM
ISS 20 May 10:37:14 10:40:35 67° 215° (SW) 10:43:55 145.800 FM
SO-50 20 May 10:44:05 10:48:48 55° 309° (NW) 10:53:27 436.795 FM
PCSat 20 May 10:50:30 10:53:57 17° 323° (NW) 10:57:25 145.825 MHz
KITSAT 1 20 May 10:56:01 11:02:09 24° 256° (WSW) 11:08:17 435.175 FM
JAS-1B 20 May 10:56:20 11:00:45 20° 304° (NW) 11:04:51 435.800 - 435.900 CW/SSB
Oscar 11 20 May 11:07:15 11:11:38 71° 102° (ESE) 11:15:59 145.825 FM, Beacon 2401.500 USB
OPAL 20 May 11:07:56 11:12:23 31° 98° (E) 11:16:45 ?
MaSat-1 20 May 11:08:34 11:10:12 12° 41° (NE) 11:11:42 437.345 MHz
HO-68 20 May 11:14:10 11:21:22 83° 288° (WNW) 11:28:32 435.675 MHz FM
JAS-2 20 May 11:22:35 11:29:48 86° 286° (WNW) 11:36:06 435.800 - 435.900 CW/SSB, 435.910 FM
Sapphire 20 May 11:25:35 11:27:26 12° 330° (NNW) 11:29:17 437.095 MHz 1200 baud AX-25 AFSK
UOSAT-12 20 May 12:22:08 12:26:15 36° 116° (ESE) 12:30:26 437.025 FM, 437.400 FM
SO-50 20 May 12:28:22 12:30:27 13° 330° (NNW) 12:32:32 436.795 FM
Oscar 16 20 May 12:37:24 12:40:15 15° 58° (ENE) 12:43:06 437.025 USB, Beacon 2401.1428
AO-27 20 May 12:41:13 12:43:06 12° 56° (NE) 12:45:00 436.795 MHz FM
Oscar 11 20 May 12:45:19 12:47:17 13° 299° (WNW) 12:49:16 145.825 FM, Beacon 2401.500 USB
OPAL 20 May 12:46:46 12:51:17 34° 296° (WNW) 12:55:44 ?
ITAMSAT 1 20 May 12:47:55 12:50:21 14° 57° (ENE) 12:52:48 435.822 SSB
MaSat-1 20 May 12:49:30 12:52:49 44° 249° (WSW) 12:55:32 437.345 MHz
HO-68 20 May 13:03:26 13:08:03 19° 308° (NW) 13:12:41 435.675 MHz FM
Oscar 10/S400 20 May 13:07:40 13:31:13 10° 284° (WNW) 13:57:14 145.825 - 145.975 CW/USB, Beacon 145.810 USB
JAS-2 20 May 13:09:06 13:13:39 18° 307° (NW) 13:17:56 435.800 - 435.900 CW/SSB, 435.910 FM
Uribyol 2 20 May 13:27:09 13:31:36 30° 65° (ENE) 13:36:05 436.500 FM
Oscar 19 20 May 13:35:21 13:40:09 39° 68° (ENE) 13:44:58 437.125 CW, 437.150 USB
AO-Echo 20 May 14:01:21 14:04:45 19° 63° (ENE) 14:08:07 ?
UOSAT-12 20 May 14:02:26 14:06:28 31° 315° (NW) 14:10:33 437.025 FM, 437.400 FM
Oscar 16 20 May 14:13:44 14:18:56 82° 256° (WSW) 14:24:11 437.025 USB, Beacon 2401.1428
AO-27 20 May 14:16:37 14:21:47 80° 74° (ENE) 14:27:00 436.795 MHz FM
ITAMSAT 1 20 May 14:23:56 14:29:06 90° 74° (ENE) 14:34:20 435.822 SSB
Gurwin Techsat 1B 20 May 14:29:05 14:31:59 15° 58° (ENE) 14:34:53 435.225 FM
Saudisat 1A 20 May 14:57:11 15:01:31 40° 48° (NE) 15:05:45 436.775 MHz
Uribyol 2 20 May 15:06:13 15:10:59 37° 263° (W) 15:15:47 436.500 FM
Oscar 19 20 May 15:15:11 15:19:36 28° 265° (W) 15:24:02 437.125 CW, 437.150 USB
AO-7 20 May 15:25:26 15:31:38 24° 51° (NE) 15:37:51 29.400 - 29.500 MHz
Uosat F 20 May 15:28:39 15:33:33 57° 71° (ENE) 15:38:27 435.120 FM
AO-Echo 20 May 15:38:26 15:43:13 53° 260° (W) 15:47:54 ?
TMSAT-1 20 May 15:46:01 15:51:01 45° 69° (ENE) 15:56:03 436.925 FM
Oscar 16 20 May 15:58:48 15:59:06 10° 274° (W) 15:59:24 437.025 USB, Beacon 2401.1428
AO-27 20 May 15:59:33 16:01:56 13° 271° (W) 16:04:20 436.795 MHz FM
Gurwin Techsat 1B 20 May 16:05:56 16:11:15 84° 256° (WSW) 16:16:36 435.225 FM
ITAMSAT 1 20 May 16:07:44 16:09:20 11° 273° (W) 16:10:57 435.822 SSB
PCSat 20 May 16:08:12 16:12:23 22° 42° (NE) 16:16:33 145.825 MHz
RS-15 20 May 16:33:15 16:44:08 42° 108° (ESE) 16:54:35 29.354 - 29.394 USB, Beacon 29.352 USB
Saudisat 1A 20 May 16:37:15 16:41:02 26° 246° (WSW) 16:44:45 436.775 MHz
Sapphire 20 May 16:40:42 16:45:37 33° 48° (NE) 16:50:30 437.095 MHz 1200 baud AX-25 AFSK
Uosat F 20 May 17:09:24 17:12:44 18° 269° (W) 17:16:05 435.120 FM
AO-7 20 May 17:15:08 17:23:26 88° 251° (WSW) 17:31:49 29.400 - 29.500 MHz
TMSAT-1 20 May 17:26:51 17:31:09 25° 267° (W) 17:35:28 436.925 FM
SO-50 20 May 17:34:49 17:38:49 29° 44° (NE) 17:42:46 436.795 FM
Gurwin Techsat 1B 20 May 17:50:53 17:52:01 11° 274° (W) 17:53:09 435.225 FM
PCSat 20 May 17:50:58 17:56:24 74° 242° (WSW) 18:01:47 145.825 MHz
JAS-1B 20 May 18:02:19 18:07:29 18° 53° (NE) 18:12:14 435.800 - 435.900 CW/SSB

Developed and maintained by Chris Peat, Heavens-Above GmbH. Please read the updated FAQ before sending e-mail. Imprint. DLR
